When you browse on this site, cookies collect data to enhance your experience and personalize the content and advertising you see.
Visit our Privacy Policy to learn more. By continuing to use the site, you agree to this use of cookies and data.
  • In Germany
  • List of Countries
  • For 7 days
  • Water Temperature
  • Weather Map
  • Weather Widgets
  • user-avatar
    Login

    Hourly Weather Uige

    Today, 16 September, Monday

    Time Temperature Precipitation Wind Pressure Humidity
    00:00 +24°C° 0 mm 1 mps 691 mmHg 65%
    01:00 +23°C° 0 mm 1 mps 691 mmHg 70%
    02:00 +23°C° 0 mm 1 mps 690 mmHg 72%
    03:00 +21°C° 0 mm 0 mps 690 mmHg 74%
    04:00 +20°C° 0 mm 0 mps 690 mmHg 76%
    05:00 +21°C° 0 mm 0 mps 691 mmHg 75%
    06:00 +21°C° 0 mm 0 mps 691 mmHg 75%
    07:00 +21°C° 0 mm 0 mps 691 mmHg 74%
    08:00 +25°C° 0 mm 1 mps 692 mmHg 65%
    09:00 +28°C° 0 mm 1 mps 692 mmHg 56%
    10:00 +30°C° 0 mm 2 mps 693 mmHg 47%
    11:00 +30°C° 0 mm 2 mps 692 mmHg 45%
    12:00 +31°C° 0 mm 2 mps 692 mmHg 44%
    13:00 +31°C° 0 mm 2 mps 691 mmHg 42%
    14:00 +32°C° 0 mm 2 mps 691 mmHg 41%
    15:00 +32°C° 0 mm 2 mps 691 mmHg 41%
    16:00 +32°C° 0 mm 2 mps 690 mmHg 40%
    17:00 +30°C° 0.1 mm 2 mps 690 mmHg 48%
    18:00 +28°C° 0.1 mm 1 mps 691 mmHg 55%
    19:00 +26°C° 0.1 mm 1 mps 691 mmHg 63%
    20:00 +25°C° 0 mm 1 mps 691 mmHg 68%
    21:00 +24°C° 0 mm 1 mps 691 mmHg 72%
    22:00 +24°C° 0 mm 1 mps 692 mmHg 76%
    23:00 +23°C° 0 mm 1 mps 691 mmHg 79%

    Tomorrow, 17 September, Tuesday

    Time Temperature Precipitation Wind Pressure Humidity
    00:00 +21°C° 0 mm 0 mps 691 mmHg 83%
    01:00 +20°C° 0 mm 0 mps 691 mmHg 86%
    02:00 +20°C° 0 mm 0 mps 690 mmHg 86%
    03:00 +20°C° 0 mm 0 mps 690 mmHg 87%
    04:00 +20°C° 0 mm 0 mps 690 mmHg 87%
    05:00 +20°C° 0 mm 0 mps 691 mmHg 86%
    06:00 +22°C° 0 mm 1 mps 691 mmHg 85%
    07:00 +23°C° 0 mm 1 mps 692 mmHg 84%
    08:00 +26°C° 0 mm 1 mps 692 mmHg 72%
    09:00 +28°C° 0 mm 1 mps 692 mmHg 61%
    10:00 +31°C° 0 mm 1 mps 693 mmHg 49%
    11:00 +33°C° 0 mm 1 mps 692 mmHg 44%
    12:00 +35°C° 0 mm 1 mps 691 mmHg 39%
    13:00 +37°C° 0 mm 1 mps 691 mmHg 33%
    14:00 +34°C° 0.9 mm 1 mps 690 mmHg 44%
    15:00 +31°C° 0.9 mm 1 mps 689 mmHg 54%
    16:00 +28°C° 0.9 mm 1 mps 688 mmHg 65%
    17:00 +27°C° 0.8 mm 1 mps 688 mmHg 70%
    18:00 +26°C° 0.8 mm 1 mps 689 mmHg 75%
    19:00 +25°C° 0.8 mm 1 mps 689 mmHg 80%
    20:00 +24°C° 0 mm 1 mps 690 mmHg 81%
    21:00 +24°C° 0 mm 1 mps 690 mmHg 82%
    22:00 +24°C° 0 mm 1 mps 691 mmHg 84%
    23:00 +23°C° 0 mm 1 mps 690 mmHg 86%

    Day after tomorrow, 18 September, Wednesday

    Time Temperature Precipitation Wind Pressure Humidity
    00:00 +22°C° 0 mm 1 mps 690 mmHg 89%
    01:00 +22°C° 0 mm 1 mps 690 mmHg 91%
    02:00 +21°C° 0.2 mm 1 mps 690 mmHg 92%
    03:00 +21°C° 0.2 mm 1 mps 690 mmHg 93%
    04:00 +21°C° 0.2 mm 1 mps 691 mmHg 93%
    05:00 +21°C° 0.1 mm 1 mps 691 mmHg 90%
    06:00 +21°C° 0.1 mm 1 mps 691 mmHg 86%
    07:00 +21°C° 0.1 mm 1 mps 691 mmHg 83%
    08:00 +24°C° 0 mm 1 mps 692 mmHg 71%
    09:00 +26°C° 0 mm 2 mps 692 mmHg 59%
    10:00 +28°C° 0 mm 2 mps 692 mmHg 47%
    11:00 +30°C° 0 mm 2 mps 692 mmHg 43%
    12:00 +32°C° 0 mm 2 mps 691 mmHg 39%
    13:00 +34°C° 0 mm 2 mps 691 mmHg 35%
    14:00 +34°C° 0 mm 2 mps 690 mmHg 36%
    15:00 +32°C° 0 mm 2 mps 690 mmHg 37%
    16:00 +32°C° 0 mm 2 mps 689 mmHg 39%
    17:00 +30°C° 0.1 mm 2 mps 690 mmHg 45%
    18:00 +28°C° 0.1 mm 1 mps 690 mmHg 50%
    19:00 +27°C° 0.1 mm 1 mps 690 mmHg 56%
    20:00 +26°C° 0 mm 1 mps 690 mmHg 60%
    21:00 +24°C° 0 mm 1 mps 690 mmHg 63%
    22:00 +23°C° 0 mm 1 mps 691 mmHg 67%
    23:00 +23°C° 0 mm 1 mps 691 mmHg 70%

    19 September, Thursday

    Time Temperature Precipitation Wind Pressure Humidity
    00:00 +22°C° 0 mm 1 mps 690 mmHg 72%
    01:00 +21°C° 0 mm 1 mps 690 mmHg 75%
    02:00 +21°C° 0 mm 1 mps 691 mmHg 76%
    03:00 +20°C° 0 mm 1 mps 691 mmHg 77%
    04:00 +20°C° 0 mm 1 mps 691 mmHg 78%
    05:00 +18°C° 0 mm 0 mps 691 mmHg 76%
    06:00 +19°C° 0 mm 0 mps 692 mmHg 73%
    07:00 +19°C° 0 mm 0 mps 692 mmHg 70%
    08:00 +24°C° 0 mm 1 mps 692 mmHg 60%
    09:00 +26°C° 0 mm 1 mps 693 mmHg 49%
    10:00 +29°C° 0 mm 2 mps 693 mmHg 39%
    11:00 +30°C° 0 mm 2 mps 693 mmHg 36%
    12:00 +32°C° 0 mm 2 mps 692 mmHg 34%
    13:00 +34°C° 0 mm 2 mps 691 mmHg 31%
    14:00 +34°C° 0 mm 2 mps 691 mmHg 32%
    15:00 +34°C° 0 mm 2 mps 690 mmHg 33%
    16:00 +32°C° 0 mm 2 mps 690 mmHg 34%
    17:00 +31°C° 0 mm 1 mps 690 mmHg 39%
    18:00 +29°C° 0 mm 1 mps 690 mmHg 44%
    19:00 +27°C° 0 mm 1 mps 690 mmHg 48%
    20:00 +26°C° 0 mm 1 mps 691 mmHg 51%
    21:00 +25°C° 0 mm 1 mps 691 mmHg 54%
    22:00 +24°C° 0 mm 1 mps 692 mmHg 57%
    23:00 +23°C° 0 mm 1 mps 691 mmHg 63%

    20 September, Friday

    Time Temperature Precipitation Wind Pressure Humidity
    00:00 +22°C° 0 mm 1 mps 691 mmHg 69%
    01:00 +21°C° 0 mm 1 mps 691 mmHg 74%
    02:00 +21°C° 0 mm 1 mps 691 mmHg 77%
    03:00 +20°C° 0 mm 1 mps 691 mmHg 80%
    04:00 +20°C° 0 mm 1 mps 691 mmHg 83%
    05:00 +20°C° 0 mm 1 mps 692 mmHg 82%
    06:00 +20°C° 0 mm 1 mps 692 mmHg 81%
    07:00 +21°C° 0 mm 1 mps 693 mmHg 80%
    08:00 +23°C° 0 mm 2 mps 693 mmHg 70%
    09:00 +26°C° 0 mm 2 mps 693 mmHg 60%
    10:00 +29°C° 0 mm 2 mps 693 mmHg 49%
    11:00 +31°C° 0 mm 2 mps 693 mmHg 44%
    12:00 +34°C° 0 mm 2 mps 692 mmHg 38%
    13:00 +36°C° 0 mm 2 mps 691 mmHg 33%
    14:00 +35°C° 0 mm 2 mps 691 mmHg 33%
    15:00 +34°C° 0 mm 2 mps 690 mmHg 34%
    16:00 +34°C° 0 mm 2 mps 690 mmHg 35%
    17:00 +31°C° 0 mm 2 mps 690 mmHg 39%
    18:00 +30°C° 0 mm 2 mps 690 mmHg 42%
    19:00 +29°C° 0 mm 2 mps 690 mmHg 45%
    20:00 +27°C° 0 mm 2 mps 691 mmHg 50%
    21:00 +26°C° 0 mm 2 mps 691 mmHg 54%
    22:00 +24°C° 0 mm 1 mps 691 mmHg 58%
    23:00 +23°C° 0 mm 1 mps 691 mmHg 62%

    21 September, Saturday

    Time Temperature Precipitation Wind Pressure Humidity
    00:00 +22°C° 0 mm 1 mps 691 mmHg 65%
    01:00 +21°C° 0 mm 1 mps 690 mmHg 68%
    02:00 +21°C° 0 mm 1 mps 690 mmHg 71%
    03:00 +20°C° 0 mm 1 mps 690 mmHg 75%
    04:00 +19°C° 0 mm 1 mps 690 mmHg 78%
    05:00 +20°C° 0 mm 1 mps 691 mmHg 76%
    06:00 +20°C° 0 mm 1 mps 691 mmHg 75%
    07:00 +21°C° 0 mm 1 mps 692 mmHg 73%
    08:00 +24°C° 0 mm 1 mps 692 mmHg 62%
    09:00 +27°C° 0 mm 1 mps 692 mmHg 52%
    10:00 +30°C° 0 mm 2 mps 693 mmHg 41%
    11:00 +32°C° 0 mm 2 mps 692 mmHg 37%
    12:00 +35°C° 0 mm 2 mps 691 mmHg 33%
    13:00 +36°C° 0 mm 2 mps 691 mmHg 29%
    14:00 +36°C° 0 mm 2 mps 690 mmHg 31%
    15:00 +35°C° 0 mm 2 mps 690 mmHg 32%
    16:00 +34°C° 0 mm 2 mps 689 mmHg 33%
    17:00 +32°C° 0 mm 2 mps 689 mmHg 37%
    18:00 +30°C° 0 mm 2 mps 690 mmHg 41%
    19:00 +28°C° 0 mm 3 mps 690 mmHg 46%
    20:00 +27°C° 0 mm 2 mps 690 mmHg 52%
    21:00 +25°C° 0 mm 2 mps 690 mmHg 58%
    22:00 +24°C° 0 mm 1 mps 691 mmHg 65%
    23:00 +23°C° 0 mm 1 mps 690 mmHg 69%
    Show more